Regional Weather Roundup
Issued by NWS

Home | Current Version | Previous Version | Text Only | Print | Product List | Glossary On
Versions: 1 2 3 4 5 6 7 8 9 10 11 12 13 14 15 16 17 18 19 20 21 22 23 24 25 26 27 28 29 30 31 32 33 34 35 36 37 38 39 40 41 42 43 44 45 46 47 48 49 50
000
ASUS43 KMKX 020121
RWRWI

WISCONSIN REGIONAL WEATHER ROUNDUP
NATIONAL WEATHER SERVICE MILWAUKEE/SULLIVAN WI
800 PM CDT WED JUL 01 2015

NOTE: "FAIR" INDICATES FEW OR NO CLOUDS BELOW 12,000 FEET WITH NO
SIGNIFICANT WEATHER AND/OR OBSTRUCTIONS TO VISIBILITY.

WIZ001-002-006>008-014>016-023>028-020200-
NORTHWEST WISCONSIN

CITY           SKY/WX    TMP DP  RH WIND       PRES   REMARKS
SUPERIOR ARPT  PTCLDY    61  57  85 NE5       30.00R
ASHLAND        CLEAR     62  51  67 NE3       30.01R
HAYWARD        CLEAR     70  53  54 CALM      30.01R
SIREN          CLEAR     71  51  49 SE3       30.00S
CUMBERLAND     CLEAR     68  52  56 N3        30.01R
RICE LAKE      MOCLDY    69  53  55 CALM      30.02R
CHETEK         CLEAR     69  53  55 N5        30.01R
LADYSMITH      CLEAR     67  52  58 N6        30.02R
EAU CLAIRE     CLEAR     70  53  54 CALM      29.99R
MENOMONIE      CLEAR     70  50  48 NE3       30.00R
NEW RICHMOND   CLEAR     69  55  61 CALM      30.00S
OSCEOLA        CLEAR     72  53  52 E3        30.02R
$$

WIZ003>005-009-010-017-018-020200-
NORTH CENTRAL WISCONSIN

CITY           SKY/WX    TMP DP  RH WIND       PRES   REMARKS
MANITOWISH WTR CLEAR     62  45  53 NE5       30.02R
ARBOR VITAE    CLEAR     64  47  52 NE3       30.02R
WOODRUFF       CLEAR     64  47  52 NE3       30.02R
RHINELANDER    CLEAR     64  48  56 CALM      30.02R
EAGLE RIVER    CLEAR     63  45  51 N3        30.02R
LAND O LAKES   CLEAR     62  47  56 N6        30.03S
PHILLIPS       CLEAR     65  47  51 CALM      30.01R
TOMAHAWK       CLEAR     63  48  57 CALM      30.01S
MEDFORD        CLEAR     64  51  63 CALM      30.01R
MERRILL        CLEAR     65  48  53 NE3       30.01R
$$

WIZ029-030-035-036-043>047-020200-
CENTRAL WISCONSIN

CITY           SKY/WX    TMP DP  RH WIND       PRES   REMARKS
WAUSAU         CLEAR     70  44  39 N3        29.98R
MOSINEE        CLEAR     66  45  45 N5        30.00R
MARSHFIELD     CLEAR     68  45  43 E3        29.99R
STEVENS POINT  CLEAR     67  46  46 E3        29.99R
WAUPACA        CLEAR     69  50  50 E3        29.99R
WAUTOMA        CLEAR     68  49  50 CALM      29.99R
WISC RAPIDS    CLEAR     67  49  52 NW5       30.00R
CAMP DOUGLAS   PTCLDY    66  55  68 N3        29.99R
$$

WIZ011>013-019>022-031-037>040-048>050-020200-
NORTHEAST WISCONSIN

CITY           SKY/WX    TMP DP  RH WIND       PRES   REMARKS
ANTIGO         CLEAR     62  52  69 N6        30.01R
SHAWANO        CLEAR     68  51  55 E9G17     29.99R
OCONTO         CLEAR     62  49  62 E6        30.00R
STURGEON BAY   CLEAR     57  46  67 E3        30.03R
GREEN BAY      CLEAR     65  53  65 NE7       29.99R
MANITOWOC      PTCLDY    58  53  84 MISG      30.01R
APPLETON       PTCLDY    66  46  48 CALM      29.99R
CLINTONVILLE   CLEAR     66  50  55 CALM      29.98R
OSHKOSH        CLEAR     65  52  62 SE3       29.99R
$$

WIZ032>034-041-042-053>061-020200-
SOUTHWEST WISCONSIN

CITY           SKY/WX    TMP DP  RH WIND       PRES   REMARKS
LA CROSSE      CLEAR     68  52  56 NW3       29.98S
SPARTA         CLEAR     68  47  47 CALM      30.00R
VIROQUA        CLEAR     63  53  68 W3        30.00S
BOSCOBEL       PTCLDY    63  56  78 CALM      29.99R
PRAIRIE DU CHI MOCLDY    64  54  71 CALM      29.99S
PLATTEVILLE    CLOUDY    64  54  70 CALM      29.99S
$$

WIZ056-057-062-063-064-067-068-020200-
SOUTH CENTRAL WISCONSIN

CITY           SKY/WX    TMP DP  RH WIND       PRES   REMARKS
REEDSBURG      CLEAR     67  50  54 CALM      29.98R
BARABOO/DELLS  CLEAR     66  49  54 CALM      29.98R
LONE ROCK      CLEAR     64  58  80 CALM      29.99R
MINERAL POINT  PTCLDY    64  52  63 CALM      30.00R
MADISON        MOCLDY    66  53  63 NE3       29.98R
MIDDLETON      MOCLDY    66  53  64 CALM      29.99R
WATERTOWN      PTCLDY    61  56  83 E8        29.99R
MONROE         MOCLDY    63  54  72 N6        29.98R
JANESVILLE     CLEAR     64  55  72 E8        29.97R
$$

WIZ051-052-058>065-066-070>072-020200-
SOUTHEAST WISCONSIN

CITY           SKY/WX    TMP DP  RH WIND       PRES   REMARKS
MILWAUKEE      MOCLDY    57  49  74 N5        30.01R
WAUKESHA       CLEAR     55  50  82 E6        30.02R
MILWAUKEE/TIMM CLEAR     57  48  72 CALM      30.02R
RACINE         CLOUDY    56  49  77 CALM      30.02R
BURLINGTON     CLOUDY    55  50  82 E9        30.00S
KENOSHA        CLOUDY    56  50  80 E3        30.01R
FOND DU LAC    CLEAR     64  54  69 E7        30.00R
SHEBOYGAN      CLEAR     58  51  78 E7        30.01R
WEST BEND      CLEAR     59  52  77 CALM      30.00S
JUNEAU         MOCLDY    61  55  78 E9        30.01R
$$

LSZ147-162-020200-
LAKE SUPERIOR

STATION/POSITION TIME  TEMP    WIND        PRES    WAVE
                       AIR SEA DIR/SP/G            HT/PER
                 (UTC) (F)     (DEG/KT/KT) (MB)    (FT/S)
W MID LAKE BUOY  0050   50 39  150/  2/  2 1016.8R   0
DEVILS ISLAND    0100   62     140/  8/  9 1016.1R
SAXON HARBOR     0000   62        CALM     1015.9
$$

LMZ867-665-643>646-020200-
LAKE MICHIGAN

STATION/POSITION TIME  TEMP    WIND        PRES    WAVE
                       AIR SEA DIR/SP/G            HT/PER
                 (UTC) (F)     (DEG/KT/KT) (MB)    (FT/S)
CHAMBERS ISLAND  0000   62      40/ 10/ 16 1015.6R
S GREEN BAY BUOY 0100   65 68   60/ 12/ 16 1017.0R
N MID LAKE BUOY  0050   53 43  310/  6/  8 1015.9R   1
NORTHPORT PIER   0000   62      20/  8/ 12 1015.6R
SISTER BAY       2314   64      20/ 11/ 14   N/A
ALGOMA LAKESHORE 0010             CALM       N/A
KEWAUNEE LAKESHO 0000   56     170/  2/  3 1015.0R
SHEBOYGAN LAKESH 0100   54      50/  2/  2 1016.6R
PORT WASHINGTON  0040   57      80/  2/  3 1016.6R
ATWATER BUOY     0100   56     350/  4/  6 1017.5R
MILWAUKEE LAKESH 0100   56      60/  4/  5   N/A
KENOSHA   LAKESH 0100   55      10/  3/  5 1016.3R
$$

TC  - TEMPERATURE IN CELSIUS
VSB - VISIBILITY IN STATUTE MILES
WCI - WIND CHILL INDEX
HX  - HEAT INDEX



USA.gov is the U.S. government's official web portal to all federal, state and local government web resources and services.